This is the latest recevied weather packets stored in our database for station/object OK1PHM-12. If no packets are shown the sender has not sent any weather packets the latest 10 day(s).
| Time | Temp. | Humidity | Pressure | Rain* | Wind** | Luminosity | Snow |
|---|---|---|---|---|---|---|---|
| 1778168670 | 19.44° C | 48% | 1013.7 hPa | - | - | - | - |
| 1778167770 | 19.44° C | 47% | 1013.7 hPa | - | - | - | - |
| 1778166869 | 20° C | 49% | 1013.7 hPa | - | - | - | - |
| 1778165968 | 19.44° C | 49% | 1013.6 hPa | - | - | - | - |
| 1778165067 | 20° C | 50% | 1013.6 hPa | - | - | - | - |
| 1778164166 | 20° C | 49% | 1013.6 hPa | - | - | - | - |
| 1778163265 | 20.56° C | 49% | 1013.7 hPa | - | - | - | - |
| 1778162365 | 20° C | 51% | 1013.7 hPa | - | - | - | - |
| 1778161463 | 20.56° C | 51% | 1013.7 hPa | - | - | - | - |
| 1778160563 | 21.11° C | 50% | 1013.8 hPa | - | - | - | - |
| 1778159662 | 22.22° C | 46% | 1013.6 hPa | - | - | - | - |
| 1778158761 | 20.56° C | 49% | 1013.7 hPa | - | - | - | - |
| 1778157860 | 20.56° C | 50% | 1013.6 hPa | - | - | - | - |
| 1778156959 | 21.67° C | 49% | 1013.6 hPa | - | - | - | - |
| 1778156059 | 22.78° C | 46% | 1013.5 hPa | - | - | - | - |
| 1778155158 | 20.56° C | 49% | 1013.5 hPa | - | - | - | - |
| 1778154257 | 19.44° C | 50% | 1013.6 hPa | - | - | - | - |
| 1778153356 | 20° C | 51% | 1013.6 hPa | - | - | - | - |
| 1778152455 | 21.11° C | 51% | 1013.5 hPa | - | - | - | - |
| 1778151554 | 20.56° C | 52% | 1013.5 hPa | - | - | - | - |
| 1778150654 | 19.44° C | 55% | 1013.5 hPa | - | - | - | - |
| 1778149753 | 18.89° C | 55% | 1013.5 hPa | - | - | - | - |
| 1778148852 | 19.44° C | 56% | 1013.4 hPa | - | - | - | - |
| 1778147951 | 20.56° C | 53% | 1013.4 hPa | - | - | - | - |
| 1778147050 | 18.89° C | 59% | 1013.2 hPa | - | - | - | - |
* Rain since midnight (hover to see other rain measurements)
** Current wind speed in m/s (hover to see current wind gust speed)